Location: Unspecified
(45.7810°N, 0.0000°E)
Time: 00:08:57
(UTC+00:00)

ISS - Pass Details

Date: 29 July 2019
Orbit: 410 x 421 km, 51.6° (Epoch: 25 August)

Event Time Altitude Azimuth Distance (km) Brightness Sun altitude
Rises 21:24:47 0° 298° (WNW) 2,375 1.4 -15.9°
Reaches altitude 10° 21:26:54 10° 301° (WNW) 1,507 0.2 -16.1°
Maximum altitude 21:30:16 65° 24° (NNE) 466 -3.5 -16.5°
Enters shadow 21:31:31 35° 95° (E) 703 -3.0 -16.6°
